Simultaneous Nadir Overpasses (SNOs) Predictions

Prediction of SNOs between GOES-16 and LANDSAT-8 Satellite Orbit:

Table of predicted SNOs for the next 14.0 days since TLE Epoch: 7/27/2024
Index Date Time (GOES-16) GOES-16 Lat,Lon LANDSAT-8 Lat,Lon Distance(km) Time Diff (sec)
1 07/28/2024 03:11:54 0.02, -75.20 0.11, -74.70 56.71 80
2 07/30/2024 02:59:43 0.01, -75.21 0.76, -71.75 394.55 80
3 07/30/2024 15:18:18 -0.01, -75.22 0.36, -76.89 190.81 80
4 08/01/2024 15:08:46 -0.01, -75.23 -0.26, -73.93 147.74 80
5 08/02/2024 03:27:30 0.01, -75.23 -0.84, -79.12 442.47 80
6 08/03/2024 14:56:34 -0.01, -75.26 -0.90, -70.97 486.91 80
7 08/04/2024 03:15:18 0.02, -75.26 -0.20, -76.16 103.12 80
8 08/06/2024 03:03:06 0.03, -75.29 0.47, -73.20 237.37 80
9 08/06/2024 15:24:21 -0.03, -75.30 0.63, -78.35 347.16 80
10 08/08/2024 15:12:08 -0.03, -75.34 0.00, -75.39 5.71 80
